This is the latest recevied weather packets stored in our database for station/object W0WC. If no packets are shown the sender has not sent any weather packets the latest 10 day(s).
| Time | Temp. | Humidity | Pressure | Rain* | Wind** | Luminosity | Snow |
|---|---|---|---|---|---|---|---|
| 1777859748 | 21.67° C | 51% | 1011.1 hPa | 0 mm | - | 0 W/m² | - |
| 1777859443 | 21.67° C | 51% | 1011.2 hPa | 0 mm | - | 0 W/m² | - |
| 1777859140 | 21.67° C | 51% | 1011.1 hPa | 0 mm | - | 0 W/m² | - |
| 1777858837 | 22.22° C | 51% | 1011.1 hPa | 0 mm | - | 0 W/m² | - |
| 1777858535 | 22.22° C | 51% | 1011.2 hPa | 0 mm | - | 0 W/m² | - |
| 1777858232 | 22.22° C | 50% | 1011.1 hPa | 0 mm | - | 0 W/m² | - |
| 1777857930 | 22.78° C | 49% | 1011 hPa | 0 mm | - | 0 W/m² | - |
| 1777857627 | 22.78° C | 48% | 1011.1 hPa | 0 mm | - | 1 W/m² | - |
| 1777857323 | 23.33° C | 47% | 1011.1 hPa | 0 mm | - | 1 W/m² | - |
| 1777857020 | 23.33° C | 46% | 1011 hPa | 0 mm | - | 2 W/m² | - |
| 1777856715 | 23.33° C | 45% | 1010.9 hPa | 0 mm | - | 4 W/m² | - |
| 1777856411 | 23.89° C | 45% | 1011.1 hPa | 0 mm | - | 7 W/m² | - |
| 1777856108 | 23.89° C | 45% | 1011 hPa | 0 mm | - | 11 W/m² | - |
| 1777855806 | 23.89° C | 44% | 1011.1 hPa | 0 mm | - | 15 W/m² | - |
| 1777855504 | 23.89° C | 45% | 1011.1 hPa | 0 mm | - | 21 W/m² | - |
| 1777855200 | 24.44° C | 44% | 1011.1 hPa | 0 mm | - | 25 W/m² | - |
| 1777854896 | 24.44° C | 44% | 1011.1 hPa | 0 mm | - | 27 W/m² | - |
| 1777854593 | 24.44° C | 44% | 1011.2 hPa | 0 mm | - | 30 W/m² | - |
| 1777854290 | 24.44° C | 43% | 1011.2 hPa | 0 mm | - | 31 W/m² | - |
| 1777853988 | 25° C | 43% | 1011.3 hPa | 0 mm | - | 37 W/m² | - |
| 1777853685 | 25° C | 43% | 1011.2 hPa | 0 mm | - | 48 W/m² | - |
| 1777853382 | 25° C | 42% | 1011.3 hPa | 0 mm | - | 55 W/m² | - |
| 1777853078 | 25° C | 42% | 1011.5 hPa | 0 mm | - | 73 W/m² | - |
| 1777852776 | 25° C | 41% | 1011.3 hPa | 0 mm | - | 105 W/m² | - |
| 1777852473 | 25° C | 41% | 1011.5 hPa | 0 mm | - | 81 W/m² | - |
* Rain latest hour (hover to see other rain measurements)
** Current wind speed in m/s (hover to see current wind gust speed)